Location: Hamburg
(53.5511°N, 9.9937°E)
Time: 16:23:34
(UTC+02:00)

ISS - Pass Details

Date: 16 March 2026
Orbit: 416 x 425 km, 51.6° (Epoch: 19 April)

Event Time Altitude Azimuth Distance (km) Brightness Sun altitude
Rises 20:32:46 0° 257° (WSW) 2,386 0.9 -19.1°
Reaches altitude 10° 20:34:53 10° 254° (WSW) 1,519 -0.3 -19.4°
Enters shadow 20:38:01 58° 198° (SSW) 502 -3.5 -19.8°
